SCP
1 1 1 0 1 1 1 2 2 1 1 1 1 1 1 0 0 0 0 0 0 0
0 0 1 0 1 1 2 2 2 2 2 1 2 1 1 0 0 0 0 0 0 0
0 0 0 0 1 1 1 2 2 2 2 1 1 1 0 0 0 0 0 0 0 0
0 0 0 0 1 1 2 2 2 2 1 1 1 0 0 0 0 0 0 0 0 0
0 0 0 1 1 1 2 2 2 2 1 1 0 0 0 0 0 0 0 0 0 0
0 0 1 1 1 2 2 2 2 1 1 1 0 0 0 0 0 0 0 0 0 0
1 1 1 1 2 2 2 2 2 2 1 1 0 0 0 0 0 0 0 0 0 0
1 2 3 2 2 2 3 2 2 1 1 0 0 0 0 0 0 0 0 0 0 0
3 3 3 2 2 2 2 2 1 1 0 0 0 0 0 0 0 0 0 0 0 0
3 2 2 2 2 2 2 1 1 0 0 0 0 0 0 0 0 0 0 0 0 0
3 2 2 2 2 2 1 1 0 0 0 0 0 0 0 0 0 0 0 0 0 0
2 1 1 1 1 0 0 0 0 0 0 0 0 0 0 0 0 0 0 0 0 0
1 1 0 0 0 0 0 0 0 0 0 0 0 0 0 0 0 0 0 0 0 0
0 0 0 0 0 0 0 0 0 0 0 0 0 0 0 0 0 0 0 0 0 0
Wind_Speed_500mb
71 79 76 85 91 89 73 56 54 46 42 38 38 35 35 34 36 36 33 29 25 28
68 79 82 86 88 81 74 55 54 44 39 40 38 35 34 36 37 36 31 30 26 28
70 72 71 81 79 81 70 60 52 44 40 42 39 36 38 41 36 32 32 30 28 29
72 68 70 64 72 80 69 60 47 44 44 47 45 39 39 39 38 34 29 28 29 27
73 65 71 72 78 74 67 54 49 46 48 52 47 42 39 39 38 32 29 26 28 25
72 66 66 71 77 71 62 52 53 51 55 55 47 42 41 36 32 27 26 24 24 22
71 70 61 71 70 62 56 57 59 56 59 53 50 45 42 36 28 28 27 25 22 19
61 63 62 68 63 59 60 62 60 58 60 53 52 50 43 33 27 26 33 30 22 17
45 49 55 59 60 60 64 63 59 62 59 57 56 46 32 34 24 28 31 29 24 20
41 50 56 58 58 61 62 58 61 64 60 56 51 39 33 30 25 27 24 24 22 18
41 46 50 51 56 58 60 62 65 63 60 54 48 40 34 31 30 26 21 19 18 16
43 46 50 54 60 59 64 68 65 63 58 52 48 39 33 30 31 29 23 20 19 16
36 44 53 61 63 57 62 69 64 62 53 47 39 34 33 34 33 31 26 23 22 17
35 44 58 66 64 63 65 64 59 55 51 42 36 35 36 30 30 27 27 25 22 18
Wind_Direction_500mb
245 242 246 246 243 239 240 242 254 253 241 231 227 228 230 213 206 216 221 221 230 243
249 239 248 243 242 238 235 238 248 243 234 221 222 227 220 200 211 211 215 226 235 240
249 237 250 240 234 228 228 234 235 233 223 219 218 221 209 205 204 197 211 226 233 243
244 231 243 229 223 222 227 233 229 230 222 216 215 205 199 204 201 201 217 227 237 235
236 227 235 229 219 224 230 229 232 224 219 218 208 197 205 204 199 205 221 230 229 222
225 225 232 228 221 222 226 227 224 220 216 214 201 190 205 203 201 212 219 219 216 214
218 218 225 225 218 222 223 226 216 216 212 208 196 195 202 197 203 206 206 199 191 203
216 216 223 219 220 222 222 214 209 206 201 200 191 192 196 196 190 204 195 194 198 209
192 198 207 212 215 211 207 203 203 201 193 187 187 187 189 186 194 195 198 205 212 221
192 195 201 203 201 200 198 200 198 189 187 188 177 177 176 193 202 188 193 196 213 227
186 189 189 194 197 199 198 191 184 185 178 176 176 178 184 189 195 198 194 204 221 222
182 191 198 195 192 185 183 181 181 173 169 174 175 180 191 189 195 201 204 210 218 214
202 202 196 184 179 178 180 170 166 168 173 174 180 188 184 192 200 203 204 212 203 198
197 201 191 174 168 166 162 163 167 169 171 176 184 184 190 198 204 209 213 206 200 207
Wind_Speed_850mb
71 79 76 85 91 89 73 56 54 46 42 38 38 35 35 34 36 36 33 29 25 28
68 79 82 86 88 81 74 55 54 44 39 40 38 35 34 36 37 36 31 30 26 28
70 72 71 81 79 81 70 60 52 44 40 42 39 36 38 41 36 32 32 30 28 29
72 68 70 64 72 80 69 60 47 44 44 47 45 39 39 39 38 34 29 28 29 27
73 65 71 72 78 74 67 54 49 46 48 52 47 42 39 39 38 32 29 26 28 25
72 66 66 71 77 71 62 52 53 51 55 55 47 42 41 36 32 27 26 24 24 22
71 70 61 71 70 62 56 57 59 56 59 53 50 45 42 36 28 28 27 25 22 19
61 63 62 68 63 59 60 62 60 58 60 53 52 50 43 33 27 26 33 30 22 17
45 49 55 59 60 60 64 63 59 62 59 57 56 46 32 34 24 28 31 29 24 20
41 50 56 58 58 61 62 58 61 64 60 56 51 39 33 30 25 27 24 24 22 18
41 46 50 51 56 58 60 62 65 63 60 54 48 40 34 31 30 26 21 19 18 16
43 46 50 54 60 59 64 68 65 63 58 52 48 39 33 30 31 29 23 20 19 16
36 44 53 61 63 57 62 69 64 62 53 47 39 34 33 34 33 31 26 23 22 17
35 44 58 66 64 63 65 64 59 55 51 42 36 35 36 30 30 27 27 25 22 18
Wind_Direction_850mb
245 242 246 246 243 239 240 242 254 253 241 231 227 228 230 213 206 216 221 221 230 243
249 239 248 243 242 238 235 238 248 243 234 221 222 227 220 200 211 211 215 226 235 240
249 237 250 240 234 228 228 234 235 233 223 219 218 221 209 205 204 197 211 226 233 243
244 231 243 229 223 222 227 233 229 230 222 216 215 205 199 204 201 201 217 227 237 235
236 227 235 229 219 224 230 229 232 224 219 218 208 197 205 204 199 205 221 230 229 222
225 225 232 228 221 222 226 227 224 220 216 214 201 190 205 203 201 212 219 219 216 214
218 218 225 225 218 222 223 226 216 216 212 208 196 195 202 197 203 206 206 199 191 203
216 216 223 219 220 222 222 214 209 206 201 200 191 192 196 196 190 204 195 194 198 209
192 198 207 212 215 211 207 203 203 201 193 187 187 187 189 186 194 195 198 205 212 221
192 195 201 203 201 200 198 200 198 189 187 188 177 177 176 193 202 188 193 196 213 227
186 189 189 194 197 199 198 191 184 185 178 176 176 178 184 189 195 198 194 204 221 222
182 191 198 195 192 185 183 181 181 173 169 174 175 180 191 189 195 201 204 210 218 214
202 202 196 184 179 178 180 170 166 168 173 174 180 188 184 192 200 203 204 212 203 198
197 201 191 174 168 166 162 163 167 169 171 176 184 184 190 198 204 209 213 206 200 207